Location: Lavardac
(44.1778°N, 0.2983°E)
Time: 08:53:24
(UTC+00:00)

BREEZE-M DEB (TANK) - Pass Details

Date: 06 June 2020
Orbit: 325 x 12053 km, 49.6° (Epoch: 14 July)

Event Time Altitude Azimuth Distance (km) Brightness Sun altitude
Rises 21:05:08 0° 214° (SW) 8,300 7.9 -12.3°
Reaches altitude 10° 21:13:06 10° 208° (SSW) 5,410 6.9 -13.2°
Maximum altitude 21:23:16 33° 151° (SSE) 1,725 4.1 -14.3°
Drops below altitude 10° 21:27:11 10° 86° (E) 2,021 4.7 -14.7°
Sets 21:28:48 0° 74° (ENE) 2,604 5.4 -14.9°
